Date String (YYYY-MM-DD hh:mm:ss) UTC,Instrument flags,Ambient pressure (hPa),Sample flow (lpm),Bypass flow (lpm),Sample temperature (°C),Ambient temperature (°C),ASC tube jacket temperature (°C),LED temperature (°C),Box temperature (°C),Sample RH (%),Span deviation,Mass concentration (μg/m³),Mass concentration (μg/m³),Mass concentration (μg/m³)
DateTimeUTC,F1_M11,P_M11,Q1_M11,Q2_M11,T1_M11,T2_M11,T3_M11,T4_M11,T5_M11,U1_M11,ZSPAN_M11,X2_M11,X0_M11,X1_M11
2022-11-29 22:00:00,,0819.9,5.00,0.00,22.0,22.0,00.0,30.7,24.0,10.9,0000.0,0003.02,0004.90,0002.64
2022-11-29 22:01:00,,0819.9,4.99,0.00,22.0,21.8,00.0,30.7,24.0,10.9,0000.0,0003.01,0004.88,0002.64
2022-11-29 22:02:00,,0819.9,5.01,0.00,22.0,21.6,00.0,30.7,23.9,10.8,0000.0,0003.08,0005.00,0002.64
2022-11-29 22:03:00,,0819.9,5.01,0.00,22.0,21.4,00.0,30.8,23.9,10.8,0000.0,0003.12,0005.14,0002.65
2022-11-29 22:04:00,,0819.9,5.00,0.00,22.0,21.2,00.0,30.8,23.9,10.8,0000.0,0003.11,0005.05,0002.65
2022-11-29 22:05:00,,0820.0,5.00,0.00,22.0,21.2,00.0,30.8,23.9,10.8,0000.0,0003.11,0005.03,0002.65
2022-11-29 22:06:00,,0820.1,4.99,0.00,22.0,21.1,00.0,30.8,23.9,10.8,0000.0,0003.11,0005.04,0002.66
2022-11-29 22:07:00,,0820.1,5.00,0.00,22.0,21.0,00.0,30.8,23.9,10.8,0000.0,0003.12,0005.08,0002.66
2022-11-29 22:08:00,,0820.0,5.01,0.00,22.0,21.0,00.0,30.9,23.9,10.8,0000.0,0003.09,0005.01,0002.65
2022-11-29 22:09:00,,0820.0,5.00,0.00,22.0,21.0,00.0,30.9,23.9,10.8,0000.0,0003.11,0004.93,0002.66
2022-11-29 22:10:00,,0820.0,5.01,0.00,22.0,20.9,00.0,30.9,23.9,10.8,0000.0,0003.11,0004.65,0002.66
2022-11-29 22:11:00,,0820.0,5.00,0.00,22.0,20.9,00.0,30.9,23.9,10.8,0000.0,0003.07,0004.66,0002.64
2022-11-29 22:12:00,,0820.0,5.01,0.00,22.0,20.9,00.0,30.9,23.9,10.7,0000.0,0003.07,0004.60,0002.64
2022-11-29 22:13:00,,0820.0,5.00,0.00,22.0,20.9,00.0,30.9,23.9,10.7,0000.0,0003.01,0004.48,0002.62
2022-11-29 22:14:00,,0819.9,5.00,0.00,22.0,20.9,00.0,30.9,23.9,10.7,0000.0,0002.99,0004.39,0002.62
2022-11-29 22:15:00,,0819.9,5.00,0.00,22.0,20.9,00.0,30.9,23.9,10.7,0000.0,0003.03,0004.50,0002.62
2022-11-29 22:16:00,,0819.9,4.99,0.00,22.0,20.8,00.0,30.9,23.9,10.7,0000.0,0003.08,0004.66,0002.63
2022-11-29 22:17:00,,0819.9,5.01,0.00,22.0,20.8,00.0,30.9,23.9,10.7,0000.0,0003.12,0004.81,0002.61
2022-11-29 22:18:00,,0820.0,5.00,0.00,22.0,20.8,00.0,30.9,23.9,10.7,0000.0,0003.12,0004.81,0002.62
2022-11-29 22:19:00,,0820.0,5.00,0.00,22.0,20.8,00.0,30.9,23.9,10.6,0000.0,0003.14,0004.89,0002.62
2022-11-29 22:20:00,,0820.0,5.01,0.00,22.0,20.8,00.0,30.9,23.9,10.6,0000.0,0003.15,0004.94,0002.62
2022-11-29 22:21:00,,0819.9,5.00,0.00,22.0,20.8,00.0,30.9,23.8,10.6,0000.0,0003.15,0004.92,0002.63
2022-11-29 22:22:00,,0820.0,5.00,0.00,22.0,20.8,00.0,30.9,23.8,10.7,0000.0,0003.15,0004.74,0002.65
2022-11-29 22:23:00,,0820.0,5.00,0.00,22.0,20.7,00.0,30.9,23.8,10.6,0000.0,0003.16,0004.76,0002.65
2022-11-29 22:24:00,,0820.1,4.99,0.00,22.0,20.7,00.0,30.9,23.8,10.7,0000.0,0003.17,0004.85,0002.66
2022-11-29 22:25:00,,0820.1,5.00,0.00,22.0,20.7,00.0,30.9,23.8,10.7,0000.0,0003.20,0005.05,0002.67
2022-11-29 22:26:00,,0820.1,5.00,0.00,22.0,21.2,00.0,30.8,23.9,10.7,0000.0,0003.20,0005.01,0002.67
2022-11-29 22:27:00,,0820.0,4.99,0.00,22.1,21.9,00.0,30.8,24.1,10.7,0000.0,0003.18,0004.86,0002.67
2022-11-29 22:28:00,,0820.0,4.99,0.00,22.2,22.0,00.0,30.9,24.1,10.6,0000.0,0003.16,0004.73,0002.66
2022-11-29 22:29:00,,0820.0,5.00,0.00,22.2,21.7,00.0,30.9,24.1,10.6,0000.0,0003.17,0004.86,0002.66
2022-11-29 22:30:00,,0820.1,5.00,0.00,22.2,21.5,00.0,31.0,24.1,10.6,0000.0,0003.17,0004.90,0002.65
2022-11-29 22:31:00,,0820.2,5.00,0.00,22.2,21.3,00.0,31.0,24.0,10.5,0000.0,0003.17,0005.17,0002.66
2022-11-29 22:32:00,,0820.2,5.00,0.00,22.1,21.1,00.0,31.0,23.9,10.5,0000.0,0003.19,0005.38,0002.66
2022-11-29 22:33:00,,0820.2,5.00,0.00,22.1,21.0,00.0,31.0,23.9,10.6,0000.0,0003.21,0005.60,0002.65
2022-11-29 22:34:00,,0820.3,5.00,0.00,22.1,20.8,00.0,31.0,23.9,10.6,0000.0,0003.24,0005.85,0002.66
2022-11-29 22:35:00,,0820.3,5.00,0.00,22.1,20.7,00.0,31.0,23.9,10.6,0000.0,0003.27,0006.02,0002.67
2022-11-29 22:36:00,,0820.4,5.00,0.00,22.1,20.7,00.0,31.0,23.9,10.6,0000.0,0003.24,0005.78,0002.67
2022-11-29 22:37:00,,0820.5,5.00,0.00,22.1,20.7,00.0,31.0,23.9,10.6,0000.0,0003.21,0005.74,0002.65
2022-11-29 22:38:00,,0820.5,5.00,0.00,22.0,20.7,00.0,31.0,23.9,10.6,0000.0,0003.19,0005.67,0002.64
2022-11-29 22:39:00,,0820.6,4.99,0.00,22.0,20.7,00.0,31.0,23.9,10.6,0000.0,0003.18,0005.62,0002.64
2022-11-29 22:40:00,,0820.6,5.00,0.00,22.0,20.7,00.0,31.0,23.9,10.6,0000.0,0003.16,0005.49,0002.63
2022-11-29 22:41:00,,0820.6,5.00,0.00,22.0,20.7,00.0,31.0,23.9,10.6,0000.0,0003.16,0005.58,0002.63
2022-11-29 22:42:00,,0820.6,5.01,0.00,22.0,20.7,00.0,31.0,23.9,10.6,0000.0,0003.14,0005.37,0002.62
2022-11-29 22:43:00,,0820.6,5.00,0.00,22.0,20.7,00.0,31.0,23.9,10.6,0000.0,0003.12,0005.18,0002.62
2022-11-29 22:44:00,,0820.6,4.99,0.00,22.0,20.7,00.0,31.0,23.9,10.6,0000.0,0003.10,0004.90,0002.62
2022-11-29 22:45:00,,0820.6,4.99,0.00,22.0,20.7,00.0,31.0,23.9,10.7,0000.0,0003.07,0004.67,0002.62
2022-11-29 22:46:00,,0820.6,5.01,0.00,22.0,20.7,00.0,31.0,23.9,10.7,0000.0,0002.98,0004.43,0002.60
2022-11-29 22:47:00,,0820.6,5.01,0.00,22.0,20.8,00.0,30.9,23.9,10.7,0000.0,0003.02,0004.62,0002.61
2022-11-29 22:48:00,,0820.7,4.99,0.00,22.1,21.5,00.0,30.9,24.0,10.7,0000.0,0003.04,0004.61,0002.61
2022-11-29 22:49:00,,0820.6,5.00,0.00,22.2,22.1,00.0,30.9,24.2,10.6,0000.0,0003.07,0004.63,0002.63
2022-11-29 22:50:00,,0820.7,5.00,0.00,22.2,22.0,00.0,30.9,24.2,10.6,0000.0,0003.08,0004.68,0002.64
2022-11-29 22:51:00,,0820.8,4.99,0.00,22.2,21.8,00.0,31.0,24.2,10.5,0000.0,0003.08,0004.74,0002.64
2022-11-29 22:52:00,,0820.9,4.99,0.00,22.2,21.6,00.0,31.0,24.1,10.5,0000.0,0003.08,0004.64,0002.65
2022-11-29 22:53:00,,0821.0,5.00,0.00,22.2,21.4,00.0,31.1,24.1,10.5,0000.0,0003.11,0004.61,0002.67
2022-11-29 22:54:00,,0820.9,5.00,0.00,22.2,21.3,00.0,31.1,24.1,10.5,0000.0,0003.11,0004.46,0002.68
2022-11-29 22:55:00,,0820.9,5.00,0.00,22.2,21.2,00.0,31.1,24.1,10.5,0000.0,0003.10,0004.57,0002.69
2022-11-29 22:56:00,,0820.9,5.00,0.00,22.2,21.2,00.0,31.1,24.1,10.5,0000.0,0003.07,0004.53,0002.67
2022-11-29 22:57:00,,0821.0,5.00,0.00,22.2,21.1,00.0,31.1,24.1,10.5,0000.0,0003.10,0004.63,0002.69
2022-11-29 22:58:00,,0821.0,5.00,0.00,22.2,21.1,00.0,31.1,24.1,10.5,0000.0,0003.07,0004.46,0002.69
2022-11-29 22:59:00,,0821.0,4.99,0.00,22.2,21.0,00.0,31.1,24.1,10.5,0000.0,0003.07,0004.47,0002.70
